< < Back
Terminal Aerodrome Forecast


Current Version              Previous Versions:   1  2  3  4  5  6  7  8  9  

Terminal Aerodrome Forecast

932
FTUS44 KMRX 171720
TAFCHA
TAF
KCHA 171720Z 1718/1818 36009KT P6SM OVC020
     FM172200 36007KT P6SM SCT025 BKN035
      TEMPO 1722/1724 BKN025
     FM180000 00000KT P6SM SCT035 BKN200
     FM181400 02003KT P6SM OVC100=

Latest METAR

752
SAUS80 KWBC 181100
MTRCHA
METAR KCHA 181053Z 05004KT 10SM BKN090 BKN120 03/M01 A3022 RMK AO2
SLP235 FIRST T00331011


USA.gov is the U.S. government's official web portal to all federal, state and local government web resources and services.